CZ-6A DEB

Satellite information

Favourite Embed

Satellite Type and Status

DEBRISIN ORBIT

Key statistics

Satellite CZ-6A DEB at a glance.

Uptime

1129

Days in orbit

Revolutions

≈ 14.7

Per day

Orbit

SSO

Sun Synchronous Orbit

Inclination

98.6

Latest

Satellite identification and parameters

Extended collection of information and parameters for CZ-6A DEB.

Object identification

Identified? True

Debris? True

Object name: CZ-6A DEB

International designator: 2022-151CK

Object number (NORAD): 54340

Object ID (CCSDS): 54340

Country: PEOPLES REPUBLIC OF CHINA (PRC)

Current information (Y/N): Y

RCS size: SMALL

Orbital parameters

Period: 97.642 minutes

Inclination: 98.6089 deg

SMA: 7023.998 km

Apoapsis: 720.279 km

Periapsis: 571.447 km

RAAN: 61.6622 deg

Eccentricy: 0.01059455

Argument of periapsis: 33.5656 deg

Mean anomaly: 327.2204 deg

Mean motion: 14.74776368 rev/day

Mean motion (dot): 0.00012589 rev/day2

B* drag term: 0.0017238856 1/REarth

Two-line elements (TLE)

Creation date: Dec. 14, 2025, 3:07 a.m.

Reference frame: TEME

Reference center: EARTH

Epoch: Dec. 13, 2025, 4:28 p.m. UTC

TLE line 0: 0 CZ-6A DEB

TLE line 1: 1 54340U 22151CK 25347.68660512 .00012589 00000-0 17239-2 0 9991

TLE line 2: 2 54340 98.6089 61.6622 0105945 33.5656 327.2204 14.74776368164108

Live tracking on map

Real-time ground track for satellite CZ-6A DEB.

In-orbit conjunctions

A list of the most updated potential collisions computed for object CZ-6A DEB.

Target Orbit TCA Probability of collision Miss distance Type
PEGASUS R/B LEO 2025-08-14 15:58:35 0.0004946642 934.0 (m) ROCKET BODY
COSMOS 2251 DEB LEO 2024-07-25 15:07:36 0.0001227745 112.0 (m) DEBRIS

Associated space launch

Chinese satellite reported for atmospheric/ocean/environmental/spatial parameter research purposes, details TBD.

CZ-6A DEB was lifted into orbit during the mission ‘Long March 6A | Yunhai 3’, on board a Long March 6A space rocket.

The launch took place on Nov. 11, 2022, 10:52 p.m. from Launch Complex 9A.

For more information about the launch, click the button.

Launch to space Long March 6A | Yunhai 3
Long March 6A | Yunhai 3

Agency: N/A

Status: Launch Successful

Launch date: Nov. 11, 2022, 10:52 p.m. UTC

Rocket: Long March 6A

Launch pad: Launch Complex 9A

Location: Taiyuan Satellite Launch Center, People's Republic of China

...

Latest news about this satellite

There are no fresh news available about this satellite. Check back as we update our databases every day.


Newsletter sign-up

Weekly statistics, charts and insights to help you stay on top of the space industry.